sat.trackr.live / text

‹ back to catalog

STARLINK-4589

NORAD 53746 · 2022-107AY

PAYLOAD ACTIVE UNKNOWN

§ Identity

Operator
Country
US
Launch date
2022-09-05
Launch site
AFETR
Launch vehicle
Mass (kg)
RCS (m²)

Purposes: comms

External: N2YO · Heavens-Above · Gunter

§ Orbital elements

Epoch: 2026-09-20T22:44:33.139392Z

Period
93.85 min
Inclination
53.1614°
Eccentricity
0.0001148
Mean motion
15.34390858 rev/d
Perigee alt
461.9 km
Apogee alt
463.5 km
Semi-major
6,840.9 km
B*
7.3276e-5
RAAN
91.9803°
Arg perigee
87.5483°
Mean anomaly
272.5651°
Rev number
22,428

§ Raw data

STARLINK-45891 53746U 22107AY  26263.94760578  .00002100  00000+0  73276-4 0  99932 53746  53.1614  91.9803 0001148  87.5483 272.5651 15.34390858224288

JSON: /api/v1/satellites/53746 · /tle

For live sub-satellite position, see the globe view (requires WebGL).

§ Visibility from observer

Set your observer location to see the next 7 days of passes ≥ 10°. The values pass through the URL so the page stays shareable.

No JS? Fill the form by hand. The geolocation button needs JavaScript.